Weather History for Panama City, FL

Change the Weather History Date:

Thursday, July 18, 2013

  Actual Average Record
Temperature  
Mean Temperature 82 °F -  
Max Temperature 91 °F - 91 °F (2010)
Min Temperature 72 °F - 69 °F (2014)
Degree Days  
Heating Degree Days 0    
Cooling Degree Days 17    
Growing Degree Days 30 (Base 50)    
Moisture  
Dew Point 71 °F    
Average Humidity 74    
Maximum Humidity 93    
Minimum Humidity 55    
Precipitation  
Precipitation 0.01 in - 0.04 in (2014)
Month to date precipitation  
Year to date precipitation  
Sea Level Pressure  
Sea Level Pressure 30.12 in    
Wind  
Wind Speed 4 mph (East)    
Max Wind Speed 16 mph    
Max Gust Speed 20 mph    
Visibility 10 miles    
Events Rain    
T = Trace of Precipitation, MM = Missing Value Source: NWS Daily Summary

Daily Weather History Graph

Daily Weather History Graph

Search for Another Location

Airport:

Trip Planner

Search our weather history database for the weather conditions in past years. The results will help you decide how hot, cold, wet, or windy it might be!

Date:

Astronomy

Jul. 18, 2013 Rise Set
Actual Time 6:53 AM EDT 8:45 PM EDT
Civil Twilight 6:26 AM EDT 9:12 PM EDT
Nautical Twilight 5:54 AM EDT 9:44 PM EDT
Astronomical Twilight 5:19 AM EDT 10:18 PM EDT
Moon 4:43 PM EDT (7/18) 2:39 AM EDT (7/18)
Length of Visible Light 14h 45m
Length of Day
13h 51m
Waxing Gibbous, 77% of the Moon is Illuminated
Jul 18
Waxing Gibbous
Jul 22
Full
Jul 29
Last Quarter
Aug 6
New
Aug 14
First Quarter

Hourly Weather History & Observations

Time (EDT) Temp. Heat Index Dew Point Humidity Pressure Visibility Wind Dir Wind Speed Gust Speed Precip Events Conditions
12:53 AM 75.9 °F - 73.0 °F 91% 30.16 in 10.0 mi Calm Calm - N/A   Clear
1:53 AM 77.0 °F - 73.0 °F 88% 30.16 in 10.0 mi Calm Calm - N/A   Clear
2:53 AM 77.0 °F - 71.1 °F 82% 30.15 in 10.0 mi NNE 4.6 mph - N/A   Scattered Clouds
3:53 AM 75.9 °F - 68.0 °F 76% 30.12 in 10.0 mi NE 9.2 mph - N/A   Clear
4:53 AM 75.9 °F - 68.0 °F 76% 30.11 in 10.0 mi NE 6.9 mph - N/A   Clear
5:53 AM 75.0 °F - 69.1 °F 82% 30.10 in 10.0 mi East 3.5 mph - N/A   Clear
6:53 AM 73.9 °F - 70.0 °F 87% 30.12 in 10.0 mi NNW 5.8 mph - N/A   Clear
7:53 AM 75.9 °F - 70.0 °F 82% 30.13 in 10.0 mi ENE 4.6 mph - 0.00 in   Clear
8:53 AM 79.0 °F - 71.1 °F 77% 30.15 in 10.0 mi NNW 6.9 mph - N/A   Clear
9:53 AM 82.0 °F 86.7 °F 72.0 °F 71% 30.16 in 10.0 mi NNE 4.6 mph - 0.00 in   Scattered Clouds
10:53 AM 84.9 °F 90.1 °F 71.1 °F 63% 30.16 in 10.0 mi Calm Calm - 0.00 in   Partly Cloudy
11:53 AM 86.0 °F 90.1 °F 69.1 °F 57% 30.16 in 10.0 mi South 4.6 mph - N/A   Partly Cloudy
12:53 PM 87.1 °F 91.3 °F 69.1 °F 55% 30.16 in 10.0 mi ESE 4.6 mph - N/A   Partly Cloudy
1:53 PM 88.0 °F 93.8 °F 71.1 °F 57% 30.14 in 9.0 mi Variable 3.5 mph - N/A   Partly Cloudy
2:53 PM 82.0 °F 87.9 °F 73.9 °F 76% 30.11 in 5.0 mi SE 9.2 mph - 0.01 in Rain Light Rain
3:53 PM 88.0 °F 92.1 °F 69.1 °F 53% 30.09 in 10.0 mi South 8.1 mph - 0.00 in   Scattered Clouds
4:53 PM 88.0 °F 95.6 °F 73.0 °F 61% 30.07 in 10.0 mi SSE 8.1 mph - N/A   Scattered Clouds
5:53 PM 87.1 °F 92.8 °F 71.1 °F 59% 30.07 in 10.0 mi South 5.8 mph - N/A   Mostly Cloudy
6:53 PM 75.9 °F - 71.1 °F 85% 30.07 in 7.0 mi South 9.2 mph - 0.00 in   Mostly Cloudy
7:53 PM 77.0 °F - 71.1 °F 82% 30.09 in 10.0 mi NE 5.8 mph - N/A   Mostly Cloudy
8:53 PM 77.0 °F - 71.1 °F 82% 30.08 in 10.0 mi Calm Calm - N/A   Scattered Clouds
9:53 PM 75.0 °F - 72.0 °F 90% 30.09 in 10.0 mi Calm Calm - N/A   Clear
10:53 PM 73.9 °F - 71.1 °F 91% 30.12 in 10.0 mi Calm Calm - N/A   Clear
11:53 PM 73.9 °F - 71.1 °F 91% 30.12 in 10.0 mi Calm Calm - N/A   Clear